Location: Trebic
(49.2170°N, 15.8830°E)
Time: 22:41:46
(UTC+01:00)

Transit 4A - Pass Details

Date: 29 October 2020
Orbit: 862 x 982 km, 66.8° (Epoch: 30 November)

Event Time Altitude Azimuth Distance (km) Brightness Sun altitude
Rises 18:16:05 0° 285° (WNW) 3,657 12.5 -16.2°
Reaches altitude 10° 18:19:35 10° 304° (WNW) 2,726 11.2 -16.8°
Maximum altitude 18:23:49 18° 346° (NNW) 2,207 10.0 -17.5°
Drops below altitude 10° 18:28:06 10° 27° (NNE) 2,745 10.1 -18.2°
Enters shadow 18:29:00 - 33° (NNE) 2,963 10.2 -18.3°
